Location: Hermaringen
(48.5952°N, 10.2585°E)
Time: 06:34:07
(UTC+00:00)

S-56A Canister/Altair - Visible Passes

Search period start: 18 February 2026 00:00
Search period end: 28 February 2026 00:00
Orbit: 632 x 2485 km, 38.9° (Epoch: 17 February)

Date Brightness Start Highest point End Pass type
(mag) Time Alt. Az. Time Alt. Az. Time Alt. Az.
18 Feb 11.0 00:57:57 14° ESE 00:57:57 14° ESE 00:59:10 10° ESE visible
18 Feb 9.8 02:55:12 37° S 02:55:12 37° S 03:04:23 10° SE visible
18 Feb 10.3 04:52:28 15° WSW 04:57:43 22° SSW 05:06:47 10° SSE visible
19 Feb 10.1 02:22:22 30° SSE 02:22:22 30° SSE 02:28:42 10° SE visible
19 Feb 10.1 04:19:38 21° SW 04:22:30 24° SSW 04:31:38 10° SSE visible
20 Feb 10.6 01:49:35 20° SE 01:49:35 20° SE 01:53:01 10° SE visible
20 Feb 10.1 03:46:52 25° SSW 03:47:20 25° SSW 03:56:22 10° SSE visible
21 Feb 11.1 01:16:51 11° ESE 01:16:51 11° ESE 01:17:22 10° ESE visible
21 Feb 10.2 03:14:08 25° S 03:14:08 25° S 03:21:02 10° SSE visible
22 Feb 10.5 02:41:28 20° SSE 02:41:28 20° SSE 02:45:39 10° SSE visible
22 Feb 10.7 04:38:45 10° SW 04:40:48 11° SW 04:43:39 10° SSW visible
23 Feb 10.9 02:08:51 13° SSE 02:08:51 13° SSE 02:10:14 10° SSE visible
23 Feb 10.7 04:06:08 12° SSW 04:06:08 12° SSW 04:09:36 10° SSW visible
24 Feb 10.8 03:33:34 12° SSW 03:33:34 12° SSW 03:35:06 10° S visible
